Regional Weather Roundup
Issued by NWS

Home | Current Version | Previous Version | Graphics & Text | Print | Product List | Glossary Off
Versions: 1 2 3 4 5 6 7 8 9 10 11 12 13 14 15 16 17 18 19 20 21 22 23 24 25 26 27 28 29 30 31 32 33 34 35 36 37 38 39 40 41 42 43 44 45 46 47 48 49 50

000
ASUS43 KFSD 251210
RWRSD

WEATHER ROUNDUP FOR SOUTH DAKOTA
NATIONAL WEATHER SERVICE SIOUX FALLS SD
700 AM CDT SAT MAR 25 2017

NOTE: "FAIR" INDICATES FEW OR NO CLOUDS BELOW 12,000 FEET WITH NO
SIGNIFICANT WEATHER AND/OR OBSTRUCTIONS TO VISIBILITY.


SDZ001>005-009-010-012>017-251300-
NORTHWEST AND NORTH CENTRAL SOUTH DAKOTA

CITY           SKY/WX    TMP DP  RH WIND       PRES   REMARKS
BUFFALO          N/A     36  30  79 S7        29.84R
FAITH            N/A     31  30  96 SE15      29.97R WCI  20
MOBRIDGE       CLOUDY    30  27  88 SE10      30.05R FOG     WCI  21
$$

SDZ012>016-024>037-041>051-057-063-072>074-251300-
SOUTHWEST AND SOUTH CENTRAL SOUTH DAKOTA

CITY           SKY/WX    TMP DP  RH WIND       PRES   REMARKS
RAPID CTY ARPT CLOUDY    35  27  72 S15       29.93F WCI  25
PIERRE         FOG       32  31  96 SE15      30.07F VSB 3/4 WCI  22
CUSTER         CLOUDY    32  23  69 CALM      29.96F
ELLSWORTH AFB  CLOUDY    39  29  66 S13       29.92S
PHILIP         CLOUDY    24  22  91 E8        30.01F WCI  15
PINE RIDGE     CLOUDY    37  30  75 VRB3      30.01S
SPEARFISH      FAIR      39  27  60 SW9       29.89R
WINNER         FOG       32  31  96 SE6       30.08R VSB 1/2 WCI  26
$$

SDZ004>011-016>023-039-040-251300-
NORTHEAST SOUTH DAKOTA

CITY           SKY/WX    TMP DP  RH WIND       PRES   REMARKS
ABERDEEN       CLOUDY    31  27  85 E7        30.13F WCI  24
WATERTOWN      CLOUDY    31  29  92 E12       30.12R WCI  22
BROOKINGS      CLOUDY    32  30  92 E12       30.12R WCI  23
SISSETON         N/A     30  30 100 CALM      30.15S
$$

SDZ017-020-022-023-036>040-048>070-251300-
SOUTHEAST SOUTH DAKOTA

CITY           SKY/WX    TMP DP  RH WIND       PRES   REMARKS
SIOUX FALLS    CLOUDY    35  34  96 NE13      30.11S FOG     WCI  26
HURON          CLOUDY    34  31  88 E6        30.13R WCI  29
CHAMBERLAIN    CLOUDY    35  35  98 E9        30.10R WCI  28
MITCHELL       CLOUDY    35  32  88 E9        30.13S WCI  28
YANKTON        CLOUDY    36  34  93 NE10      30.11S
$$

ABBREVIATIONS USED IN REMARKS
   TC - TEMPERATURE IN CELSIUS
  WCI - WIND CHILL INDEX
   HX - HEAT INDEX
  VSB - VISIBILITY





USA.gov is the U.S. government's official web portal to all federal, state and local government web resources and services.